sat.trackr.live / text

‹ back to catalog

STARLINK-37473

NORAD 68804 · 2026-089C

PAYLOAD ACTIVE UNKNOWN

§ Identity

Operator
Country
US
Launch date
2026-04-23
Launch site
AFWTR
Launch vehicle
Mass (kg)
RCS (m²)

Purposes: comms

External: N2YO · Heavens-Above · Gunter

§ Orbital elements

Epoch: 2026-05-25T02:53:21.003072Z

Period
91.42 min
Inclination
97.2853°
Eccentricity
0.0003277
Mean motion
15.75175218 rev/d
Perigee alt
341.9 km
Apogee alt
346.3 km
Semi-major
6,722.3 km
B*
1.1561e-3
RAAN
351.7530°
Arg perigee
49.0533°
Mean anomaly
311.1015°
Rev number
506

§ Raw data

STARLINK-374731 68804U 26089C   26145.12038198  .00175815  00000+0  11561-2 0  99932 68804  97.2853 351.7530 0003277  49.0533 311.1015 15.75175218  5064

JSON: /api/v1/satellites/68804 · /tle

For live sub-satellite position, see the globe view (requires WebGL).

§ Visibility from observer

Set your observer location to see the next 7 days of passes ≥ 10°. The values pass through the URL so the page stays shareable.

No JS? Fill the form by hand. The geolocation button needs JavaScript.